Retour au catalogue

FENGYUN 1C DEB

ActifSSO
NORAD 31688·DEBRIS·🇨🇳 China

Lancé May 10, 1999 depuis Taiyuan Satellite Launch Center

Loading…

Prochains Passages (prochaines 24 heures)

TLE

FraisSource: Space-Track

Époque: Sep 14, 2026, 14:06 UTC

1 31688U 99025CCW 26257.58796681  .00000412  00000-0  28865-3 0  9992
2 31688  98.9263 311.5948 0075344  95.6559 265.3205 14.02412421991449

Suivez FENGYUN 1C DEB en temps réel avec AllMySat

Download on the App Store